CZ-4B DEB - Orbit

View from above orbital plane
View from above orbital plane
View from above satellite
View from above satellite

Ground track
Ground track

The orbit data is extracted from the following two-line orbital elements,

1 33411U 08053D   13138.77324175  .00012607  00000-0  96932-3 0  9314
2 33411 097.5427 162.6720 0014823 150.9224 209.2829 15.01757928248958
Epoch (UTC): 18 May 2013 18:33:28
Eccentricity: 0.0014823
inclination: 97.5427°
perigee height: 551 km
apogee height: 572 km
right ascension of ascending node: 162.6720°
argument of perigee: 150.9224°
revolutions per day: 15.01757928
mean anomaly at epoch: 209.2829°
orbit number at epoch: 24895

The dashed part of the orbit path shows where the satellite is in the earth's shadow,  

Developed and maintained by Chris Peat, Heavens-Above GmbH. Please read the updated FAQ before sending e-mail. Imprint. DLR